User: anonymous   Login
Location: Oshawa
(43.9000°N, 78.8670°W)
Time: 17:27:16
(UTC-04:00)
Language:

Thor Agena Rocket - Orbit

View from above orbital plane
View from above orbital plane
View from above satellite
View from above satellite

Ground track
Ground track

The orbit data is extracted from the following two-line orbital elements,

1   733U 64002A   15245.89123418 +.00000060 +00000-0 +40093-4 0  9994
2   733 099.0630 028.3563 0032953 276.5912 083.1519 14.32131691688373
Epoch (UTC): 02 September 2015 21:23:22
Eccentricity: 0.0032953
inclination: 99.0630°
perigee height: 761 km
apogee height: 808 km
right ascension of ascending node: 28.3563°
argument of perigee: 276.5912°
revolutions per day: 14.32131691
mean anomaly at epoch: 83.1519°
orbit number at epoch: 68837

The dashed part of the orbit path shows where the satellite is in the earth's shadow,  

DLR